|
USA 129 - Orbit
|
T. Spence Memorial Observatory;
07:06:49
| Home | Info | Passes |
|
View from above orbital plane
|
View from above satellite
|
Ground track
|
The orbit data is extracted from the following two-line orbital elements,
1 24680U 96072A 13140.83319840 0.00012800 00000-0 21966-3 0 00
2 24680 97.5795 194.4949 0339063 327.4264 32.5734 15.06547523 08
| Epoch (UTC): | 20 May 2013 19:59:48 |
| Eccentricity: | 0.0339063 |
| inclination: | 97.5795° |
| perigee height: | 312 km |
| apogee height: | 781 km |
| right ascension of ascending node: | 194.4949° |
| argument of perigee: | 327.4264° |
| revolutions per day: | 15.06547523 |
| mean anomaly at epoch: | 32.5734° |
| orbit number at epoch: | 0 |
The dashed part of the orbit path shows where the satellite is in the earth's shadow,
|
|